Retour au catalogue

UNIFORM 1

ActifMilitaireSSO
NORAD 39767·PAYLOAD·🇯🇵 Japan

Lancé May 24, 2014 depuis Tanegashima Space Center

Loading…

Prochains Passages (prochaines 24 heures)

TLE

FraisSource: Space-Track

Époque: Sep 14, 2026, 05:41 UTC

1 39767U 14029B   26257.23701730  .00001691  00000-0  15530-3 0  9997
2 39767  97.8068 354.3355 0005631  28.6415 331.5115 14.96179770667538

Suivez UNIFORM 1 en temps réel avec AllMySat

Download on the App Store